Regional Weather Roundup
Issued by NWS Pendleton, OR

Home | Current Version | Previous Version | Text Only | Print | Product List | Glossary On
Versions: 1 2 3 4 5 6 7 8 9 10 11 12 13 14 15 16 17 18 19 20 21 22 23 24 25 26 27 28 29 30 31 32 33 34 35 36 37 38 39 40 41 42 43 44 45 46 47 48 49 50
000
ASUS46 KPDT 240610
RWRPDT
PENDLETON REGIONAL WEATHER ROUNDUP
NATIONAL WEATHER SERVICE PENDLETON OREGON
1100 PM PDT WED APR 23 2014

NOTE: FAIR INDICATES FEW OR NO CLOUDS BELOW 12,000 FEET WITH NO
SIGNIFICANT WEATHER AND/OR OBSTRUCTIONS TO VISIBILITY.

# INDICATES UNOFFICIAL STATION AND DATA

WAZ520-240710-
EAST SLOPES OF WASHINGTON CASCADES

CITY            SKY/WX      TMP DP  RH  WIND    PRES   REMARKS
#CLE ELUM HS    N/A         41  40  96  CALM    29.71F
#CLE ELUM 2NW   N/A         40  39  96  SW1     N/A
#CLE ELUM LAKE  N/A         38  37  96  W1      29.76F
#CLIFFDEL 2NW   N/A         37  36  96  NE3     N/A
#GLENWOOD       N/A         44  43  96  CALM    29.78F
#MANASTASH CYN  N/A         40  37  89  CALM    29.72F
#NELSON         N/A         41  40  96  CALM    29.79F
#NELSON 3SW     N/A         37  36  96  CALM    29.99F
#NILE           N/A         43  42  96  CALM    29.09F
#PEOH POINT     N/A         36  35  96  E7      N/A
#RONALD 2NW     N/A         39  37  92  CALM    29.61F
#TEANAWAY 4NE   N/A         42  41  96  CALM    N/A
#TROUT LAKE HS  N/A         45  45  100 N2      N/A
#TROUT LAKE 1NE N/A         43  42  96  CALM    29.80S
$$

WAZ521-240710-
SIMCOE HIGHLANDS

CITY            SKY/WX      TMP DP  RH  WIND    PRES   REMARKS
#BICKLETON HS   N/A         42  41  96  SW9     29.79F
#CENTERVILLE 4W N/A         47  44  89  SW2     29.51F
#CENTERVILLE 1SWN/A         46  43  89  CALM    29.76F
#GOLDENDALE 1NE N/A         46  45  96  NW2     N/A
#GOODNOE HILLS  N/A         48  46  93  CALM    29.72F
#LYLE 6NE       N/A         45  43  93  CALM    29.76F
$$

WAZ026-240710-
KITTITAS VALLEY

CITY            SKY/WX      TMP DP  RH  WIND    PRES   REMARKS
ELLENSBURG AP   CLOUDY      46  41  83  CALM    29.74F
6HR MIN TEMP:   46; 6HR MAX TEMP:   51; 6HR PCP:  0.02;

#ELLENSBURG CWU N/A         44  41  89  NW2     29.72F
#ELLENSBURG 3NE N/A         43  41  93  CALM    29.77F
#ELLENSBURG     N/A         47  47  100 N2      N/A
#ELLENSBURG 1E  N/A         44  39  82  CALM    N/A
#KITTITAS 3S    N/A         45  42  89  CALM    29.74F
#THORP 6N       N/A         41  39  93  S2      29.79F
$$

WAZ027-240710-
YAKIMA VALLEY

CITY            SKY/WX      TMP DP  RH  WIND    PRES   REMARKS
YAKIMA AIRPORT  CLOUDY      51  44  77  SE3     29.75F
6HR MIN TEMP:   51; 6HR MAX TEMP:   58; 6HR PCP:  TRACE;

YAKIMA-VAGABOND MOCLDY      49  43  80  S9      29.75F
#COWICHE 1N     N/A         47  40  76  E1      29.90F
#DONALD 2NE     N/A         50  43  77  NE3     30.07F
#GRANDVIEW      N/A         49  46  89  SW1     29.79F
#MABTON         N/A         52  47  83  CALM    29.78F
#MOXEE 2E       N/A         50  40  68  E8      29.70F
#NACHES 2SW     N/A         47  43  86  CALM    29.79S
#TERRACE HTS    N/A         49  44  83  S1      29.74F
#TOPPENISH      N/A         50  46  86  E2      29.69F
#WAPATO 4NE     N/A         50  43  77  NE3     30.07F
#WEST VALLEY    N/A         49  43  80  E1      29.78F
#W YAKIMA       N/A         49  44  83  S1      29.75F
#WHITE SWAN 5E  N/A         51  44  77  N1      29.75F
#WILEY CITY 3W  N/A         48  40  74  CALM    29.78S
$$

WAZ028-240710-
LOWER COLUMBIA BASIN...WASHINGTON

CITY            SKY/WX      TMP DP  RH  WIND    PRES   REMARKS
HANFORD         LGT RAIN    50  47  89  SE8     29.77
6HR MIN TEMP:   50; 6HR MAX TEMP:   53; 6HR PCP:  0.01;

PASCO           CLOUDY      53  48  83  S6      29.82F
6HR MIN TEMP:   52; 6HR MAX TEMP:   56; 6HR PCP:  TRACE;

PROSSER AWOS    N/A         50  48  93  NE6     29.80F
RICHLAND AWOS   LGT RAIN    52  48  86  SE5     29.81F
#BASIN CITY 5SW N/A         50  47  89  CALM    29.80F
#BENTON CITY    N/A         50  46  86  CALM    29.71F
#CONNELL 5N     N/A         47  44  89  E3      29.83F
#CONNELL 5NW    N/A         48  45  89  E5      29.79F
#ELTOPIA        N/A         51  47  86  CALM    29.79F
#ELTOPIA 6NW    N/A         48  46  93  S2      28.79S
#KENNEWICK 3S   N/A         50  46  86  S1      29.82F
#PASCO-BROADMOORN/A         52  49  89  S1      29.73S
#PATERSON       N/A         50  46  86  CALM    29.79F
#PROSSER        N/A         50  45  83  SE10    29.79F
#SAGEMOOR 2W    N/A         50  47  89  CALM    29.67F
#TOUCHET 2S     N/A         52  46  80  CALM    29.82R
#WEST PASCO     N/A         52  45  77  CALM    29.79F
$$

WAZ029-240710-
FOOTHILLS OF THE BLUES...WASHINGTON

CITY            SKY/WX      TMP DP  RH  WIND    PRES   REMARKS
WALLA WALLA AP  LGT RAIN    52  43  71  S6      29.83F
6HR MIN TEMP:   52; 6HR MAX TEMP:   56; 6HR PCP:  TRACE;

#COLLEGE PLACE  N/A         54  40  59  S5      29.85S
#LOWDEN 2SE     N/A         53  45  74  S2      29.80S
#PRESCOTT       N/A         49  47  93  CALM    29.83F
#SUDBURY        N/A         52  N/A N/A CALM    N/A
#WHITMAN COLLEGEN/A         54  42  64  S3      29.88F
#WAITSBURG 8N   N/A         47  38  71  CALM    29.71S
#WALLA WALLA 5E N/A         52  40  63  SE6     N/A
#WALLA WALLA U  N/A         54  43  66  S2      29.83S
#WHITMAN MISSIONN/A         53  44  71  CALM    29.84S
$$

WAZ030-240710-
BLUE MOUNTAINS...WASHINGTON

CITY            SKY/WX      TMP DP  RH  WIND    PRES   REMARKS
$$

ORZ009-041-WAZ024-240710-
COLUMBIA RIVER GORGE

CITY            SKY/WX      TMP DP  RH  WIND    PRES   REMARKS
HOOD RIVER AP   LGT RAIN    48  48  100 CALM    29.78F
THE DALLES AP   CLOUDY      51  48  89  NE9     29.77F
6HR MIN TEMP:   51; 6HR MAX TEMP:   56; 6HR PCP:  0.11;

#ARLINGTON AIRPON/A         49  47  93  CALM    N/A
#ARLINGTON HS   N/A         51  49  93  CALM    29.71F
#CELILO DOT     N/A         50  46  86  CALM    N/A
#MOSIER 1S      N/A         48  44  86  CALM    29.83F
#MURDOCK        N/A         54  48  80  W2      29.80F
#RUFUS DOT      N/A         41  38  89  W3      N/A

$$

ORZ510-240710-
NORTH CENTRAL OREGON

CITY            SKY/WX      TMP DP  RH  WIND    PRES   REMARKS
#CHENOWITH 1W   N/A         44  N/A N/A E8      N/A
#COW CYN RST AREN/A         47  -61  0  S10     N/A
#GRASS VALLEY   N/A         44  44  100 S1      N/A
#GRASS VALLEY 1SN/A         45  43  93  S5      29.80F
#KENT DOT       N/A         45  37  73  S10     N/A
#MAUPIN SCHOOL  N/A         49  45  86  CALM    29.83F
#MORO SCHOOL    N/A         47  47  100 CALM    29.80F
#SHANIKO 5WSW   N/A         43  35  73  S14     N/A    WCI 36
#SHANIKO 4NW    N/A         43  39  86  S9G26   29.78S
#TYGH VALLEY 2NEN/A         47  44  89  CALM    29.78F
#WASCO DOT      N/A         48  47  96  N2      N/A
#WASCO 5NE      N/A         46  44  93  CALM    29.80F
$$

ORZ511-240710-
CENTRAL OREGON

CITY            SKY/WX      TMP DP  RH  WIND    PRES   REMARKS
BEND AIRPORT    MOCLDY      46  36  68  S12     29.85F WCI 40
MADRAS AIRPORT  CLOUDY      48  41  77  S10     29.81F
REDMOND AIRPORT CLOUDY      48  36  63  S20     29.81F WCI 41
6HR MIN TEMP:   47; 6HR MAX TEMP:   52; 6HR PCP:  TRACE;

#BEND 6E        N/A         46  34  63  CALM    29.80F
#BEND 1SW       N/A         41  38  89  W3      N/A
#BEND-AWBREY    N/A         43  39  86  N5      29.87F
#BEND-KIM LN    N/A         44  38  79  S5      29.81F
#CULVER         N/A         48  38  68  S7      29.77F
#LAKE BILLY CHINN/A         49  26  40  S8      29.88F
#POWELL BUTTE 3EN/A         49  37  63  S14G24  N/A    WCI 44
#POWELL BUTTE   N/A         48  36  63  SW8     29.48F
#PRINEVILLE AIR N/A         52  37  56  SE14    29.82F
#PRINEVILLE 3N  N/A         49  39  68  E17G24  29.78F WCI 43
#WARM SPRINGS   N/A         52  42  69  CALM    29.78F


ORZ509-240710-
EAST SLOPES OF OREGON CASCADES

CITY            SKY/WX      TMP DP  RH  WIND    PRES   REMARKS
#BLUE BOX PASS  N/A         38  -11 11  W2      N/A
#CAMP SHERMAN   N/A         41  39  93  CALM    29.79F
#LA PINE DOT    N/A         41  36  82  S5      N/A
#LA PINE 4NW    N/A         41  36  82  S2      29.95F
#LAVA BUTTE DOT N/A         39  36  89  S3      N/A
#MT BACHELOR-LOWN/A         33  N/A N/A MISG    N/A
#MT BACHELOR-MIDN/A         29  29  100 CALM    N/A
#SISTERS AIRPOR N/A         49  43  80  N5      29.81F
#SISTERS ODOT   N/A         46  N/A N/A CALM    N/A
#SISTERS 3N     N/A         48  36  63  W6      29.86S
#SUNRIVER       N/A         41  38  89  S3      29.77F
#SUNRIVER AP    N/A         40  37  89  SW9     29.85F
#SUTTLE LK DOT  N/A         35  35  100 E17G24  N/A    WCI 25
#TUMALO 3W      N/A         44  38  79  SE12    29.72F WCI 38
#WANOGA BUTTE D N/A         33  33  100 W12G26  N/A    WCI 24

$$

ORZ044-240710-
LOWER COLUMBIA BASIN...OREGON

CITY            SKY/WX      TMP DP  RH  WIND    PRES   REMARKS
HERMISTON       LGT RAIN    51  47  86  CALM    29.81F
6HR MIN TEMP:   51; 6HR MAX TEMP:   62; 6HR PCP:  0.04;

#BOARDMAN SCHOOLN/A         52  48  86  CALM    29.80F
#BOARDMAN 8SW   N/A         51  48  89  W2      29.79F
#IONE SCHOOL    N/A         52  41  66  E2      29.78F
#IRRIGON 4NW    N/A         51  49  93  SE2     N/A
#UMATILLA       N/A         53  46  77  CALM    29.79F
$$

ORZ507-240710-
NORTHERN FOOTHILLS OF THE BLUES

CITY            SKY/WX      TMP DP  RH  WIND    PRES   REMARKS
PENDLETON AIRPT LGT RAIN    49  44  83  E5      29.82F
6HR MIN TEMP:   48; 6HR MAX TEMP:   57; 6HR PCP:  0.04;

#ADAMS 3WNW     N/A         47  44  89  CALM    29.84F
#ATHENA         N/A         49  41  74  CALM    29.86F
#HELIX SCHOOL   N/A         47  44  89  S5      29.83F
#HELIX 3N       N/A         46  43  89  S8      29.80F
#M-F FERNDALE   N/A         53  42  66  CALM    29.83S
#M-F GROVE ELEM N/A         52  39  61  CALM    29.82S
#M-FREEWATER 5SEN/A         51  40  66  E1      29.84S
#PDT AQUATIC CTRN/A         51  42  71  CALM    29.84S
#PENDLETON DNTN N/A         51  40  66  CALM    29.78F
#PDT SUNRIDGE   N/A         49  45  86  CALM    29.83F
#PENDLETON 7NW  N/A         50  44  80  CALM    29.79F
#PILOT ROCK     N/A         52  37  56  SE14    29.83F
#TUTUILLA       N/A         47  42  83  CALM    29.76F
#UMAPINE 2E     N/A         52  44  74  CALM    29.76S
#WESTON SCHOOL  N/A         50  38  63  SW7     29.88S

$$

ORZ508-240710-
SOUTHERN FOOTHILLS OF THE BLUES

CITY            SKY/WX      TMP DP  RH  WIND    PRES   REMARKS
LEXINGTON       MOCLDY      52  45  77  S15     29.80F
#AJAX           N/A         48  38  68  N13     29.80F WCI 43
#CONDON SCHOOL  N/A         46  41  83  S12     29.77F WCI 40
#CONDON 5W      N/A         43  39  86  S10     29.76F
#FOSSIL SCHOOL  N/A         47  41  79  SW5     29.80F
#HEPPNER 4NE    N/A         45  40  82  SW1     29.82F
#LEXINGTON 2SE  N/A         52  44  74  S12     29.76F
#MIKKALO        N/A         47  43  86  CALM    29.79F
#OLEX 4N        N/A         49  47  93  CALM    29.78F
#RUGGS 5NE      N/A         46  40  79  SE7     30.04S
#RUGGS 2SW      N/A         46  40  79  SW8     29.86F

$$

ORZ502-503-240710-
BLUE MOUNTAINS

CITY            SKY/WX      TMP DP  RH  WIND    PRES   REMARKS
MEACHAM         LGT RAIN    41  38  89  CALM    29.84F
#BATTLE MTN DOT N/A         38  38  100 SE12    N/A    WCI 30
#HARDMAN 10S    N/A         38  37  96  SE3     29.91S
#HEPPNER 15SE   N/A         38  36  92  S1      29.73F
#LADD CYN SMT   N/A         43  29  57  SE8     N/A
#LADD CREEK ODOTN/A         43  36  76  SW5     N/A
#LONG CREEK HS  N/A         43  41  93  S13     29.81S WCI 36
#N POWDER DOT   N/A         45  36  70  SE15    N/A    WCI 38
#TOLLGATE 9W    N/A         40  37  89  SE3     N/A
#TROY SCHOOL    N/A         44  39  82  CALM    29.75F
#UKIAH          N/A         42  38  86  CALM    29.93S
#WESTON 4E      N/A         44  38  79  SE7     29.82F
$$

ORZ505-240710-
JOHN DAY BASIN

CITY            SKY/WX      TMP DP  RH  WIND    PRES   REMARKS
JOHN DAY        LGT DRIZZLE 46  37  71  S14     29.89F WCI 40
#JOHN DAY KJDY  N/A         49  43  80  NW5     29.83S
#DAYVILLE SCHOOLN/A         49  39  68  S3      29.86F
#MITCHELL SCHOOLN/A         48  40  74  E5      29.93S
#MONUMENT HS    N/A         49  42  77  CALM    29.83F
#MT. VERNON 5SE N/A         42  38  86  S7      29.84F
$$

ORZ506-240710-
OCHOCO AND JOHN DAY HIGHLANDS

CITY            SKY/WX      TMP DP  RH  WIND    PRES   REMARKS
#ANTONE         N/A         32  N/A N/A CALM    N/A
#BUCK CREEK DOT N/A         46  42  86  SW7     N/A
#HORSE RIDGE DO N/A         45  35  68  SE16    N/A    WCI 38
#KEYES SMT DOT  N/A         42  35  76  SE2     N/A
#PAULINA SCHOOL N/A         49  42  77  CALM    29.88F
#PINE MTN OBS   N/A         34  33  96  SE16G26 N/A    WCI 24
#PRAIRIE CITY   N/A         40  36  85  CALM    29.98S
#SENECA 9NW     N/A         38  36  92  CALM    29.95F
$$

ORZ049-240710-
GRANDE RONDE VALLEY

CITY            SKY/WX      TMP DP  RH  WIND    PRES   REMARKS
LA GRANDE       CLOUDY      48  32  54  S9      29.86F
#COVE           N/A         47  38  71  SE1     29.80F
#COVE SCHOOL    N/A         47  36  65  SE3     29.86F
#COVE 6NW       N/A         41  37  86  CALM    29.95F
#ELGIN 3N       N/A         40  38  92  CALM    29.61F
#ELGIN 1E       N/A         42  38  86  CALM    N/A
#IMBLER SCHOOL  N/A         43  38  82  CALM    29.84F
#ISLAND CITY 4N N/A         43  40  89  CALM    29.86S
#LADD CYN DOT   N/A         48  32  54  S8      N/A
#LA GRANDE ELEM N/A         44  40  86  CALM    29.86F
#UNION 1S       N/A         50  35  56  SE10    29.81F
$$

ORZ050-240710-
WALLOWA COUNTY

CITY            SKY/WX      TMP DP  RH  WIND    PRES   REMARKS
#ENTERPRISE HS  N/A         41  34  76  E2      29.88F
#IMNAHA SCHOOL  N/A         43  38  82  CALM    29.83F
#JOSEPH 3N      N/A         38  33  82  E5      29.88F
#LOSTINE        N/A         37  35  92  CALM    29.72S
#MT HOWARD 8000 N/A         28  24  85  S15G36  29.78F WCI 16
#PROMISE 1S     N/A         37  35  92  CALM    30.01F
#SHEEP RDG 7000 N/A         30  24  78  CALM    30.01F
#WALLOWA SCHOOL N/A         38  37  96  CALM    30.86S



$$



USA.gov is the U.S. government's official web portal to all federal, state and local government web resources and services.